#timestamp,LO_Frequency,Hit,StdDev 
1540011615.6,286046984.8,N
1540011635.5,286046983.2,N
1540011655.3,286046984.5,N
1540011675.1,286046986.8,N
1540011695.9,286046982.7,Y
1540011715.7,286046997.9,P
1540011735.6,286046991.9,N
1540011755.4,286046990.4,N
1540011775.2,286046987.4,Y
1540011795.1,286046999.6,P
1540011796.0,286046999.6,N
1540011815.8,286046998.7,N
1540011835.6,286046998.2,N
1540011855.5,286046999.4,N
1540011875.3,286046999.2,N
1540011895.2,286046996.9,N
1540011915.9,286046994.9,N
1540011935.7,286046997.6,N
1540011955.6,286046996.8,N
1540011975.4,286046995.7,N
1540011995.2,286046993.4,N
1540012015.1,286046995.5,N
1540012016.0,286046995.5,N
1540012035.8,286046993.5,N
1540012055.7,286046994.0,N
1540012075.5,286046992.5,Y
1540012095.3,286046993.4,P
1540012115.2,286046997.1,N
1540012135.0,286046999.5,N
1540012135.9,286046999.5,N
1540012155.7,286046998.7,N
1540012175.6,286046997.8,N
1540012195.4,286046995.0,N
1540012215.3,286046998.6,N
1540012235.1,286046996.7,N
1540012236.0,286046996.7,N
1540012255.8,286046993.8,Y
1540012275.7,286046995.8,P
1540012295.5,286046997.8,P
1540012315.4,286046995.1,P
1540012335.2,286046995.3,Y
1540012355.0,286047002.8,P
1540012355.9,286047002.8,N
1540012375.8,286047000.7,N
1540012395.6,286047000.8,N
1540012415.4,286047001.2,N
1540012435.3,286046998.6,N
1540012455.1,286047000.6,N
1540012475.9,286047002.4,N
1540012495.7,286047000.3,N
1540012515.5,286047000.4,N
1540012535.4,286046999.7,N
1540012555.2,286047000.0,N
1540012575.0,286047000.4,N
1540012575.9,286047000.4,N
1540012595.8,286046998.5,N
1540012615.6,286046998.7,N
1540012635.5,286046997.5,N
1540012655.3,286046999.3,N
1540012675.1,286046996.8,N
1540012695.9,286046999.5,N
1540012715.7,286046997.7,N
1540012735.5,286046998.1,N
1540012755.4,286047000.8,N
1540012775.2,286047000.2,N
1540012795.1,286046998.3,N
1540012796.0,286046998.3,N
1540012815.8,286046997.0,N
1540012835.6,286046997.1,N
1540012855.5,286046997.9,N
1540012875.3,286046999.1,N
1540012895.1,286046996.8,N
1540012915.9,286046996.8,N
1540012935.7,286046999.4,N
1540012955.6,286046997.3,N
1540012975.4,286046997.6,N
1540012995.2,286046997.0,N
1540013015.1,286046999.0,N
1540013016.0,286046999.0,N
1540013035.8,286046996.5,N
1540013055.6,286046996.7,N
1540013075.5,286046996.7,N
1540013095.3,286046997.3,N
1540013115.2,286046998.5,N
1540013135.9,286046998.6,N
1540013155.7,286047001.0,N
1540013175.6,286047000.7,N
1540013195.4,286047000.8,N
1540013215.2,286046996.5,N
1540013235.1,286047001.2,N
1540013236.0,286047001.2,N
1540013255.8,286046998.6,N
1540013275.7,286047002.4,N
1540013295.5,286047001.6,N
1540013315.3,286046999.9,N
1540013335.2,286046999.8,N
1540013355.0,286047000.9,N
1540013355.9,286047000.9,N
1540013375.7,286047000.6,N
1540013395.6,286046998.2,N
1540013415.4,286046999.5,N
1540013435.3,286046999.4,N
1540013455.1,286046996.8,N
1540013456.0,286046996.8,N
1540013475.8,286046999.0,N
1540013495.7,286046999.0,N
1540013515.5,286046996.8,N
1540013535.3,286046997.8,N
1540013555.2,286046998.5,N
1540013575.0,286047000.2,N
1540013575.9,286047000.2,N
1540013595.8,286047002.2,N
1540013615.6,286047002.1,N
1540013635.4,286047001.5,N
1540013655.3,286047000.2,N
1540013675.1,286046998.5,N
1540013695.8,286047001.1,N
1540013715.7,286046998.4,N
1540013735.5,286047004.3,N
1540013755.4,286047002.4,N
1540013775.2,286047002.5,N
1540013795.0,286047004.3,N
1540013795.9,286047004.3,N
1540013815.8,286047007.9,Y
1540013835.6,286047007.9,P
1540013855.5,286047013.3,P
1540013875.3,286047016.8,P
1540013895.1,286047020.0,Y
1540013915.9,286047008.1,P
1540013935.7,286047007.3,P
1540013955.5,286047010.1,P
1540013975.4,286047013.6,Y
1540013995.2,286047005.4,P
1540014015.1,286047005.7,P
1540014016.0,286047005.7,P
1540014035.8,286047007.3,Y
1540014055.6,286047002.8,P
1540014075.5,286047004.3,N
1540014095.3,286047004.3,N
1540014115.2,286047004.4,Y
1540014135.9,286046996.9,P
1540014155.7,286046994.9,N
1540014175.6,286046998.4,N
1540014195.4,286046998.5,N
1540014215.2,286047001.2,N
1540014235.1,286046998.6,N
1540014236.0,286046998.6,N
1540014255.8,286047000.5,N
1540014275.7,286046998.2,N
1540014295.5,286047001.0,N
1540014315.3,286046999.1,N
1540014335.2,286046997.4,N
1540014355.0,286046999.4,N
1540014355.9,286046999.4,N
1540014375.7,286047000.8,N
1540014395.6,286047002.7,N
1540014415.4,286047000.3,N
1540014435.3,286047000.3,N
1540014455.1,286047002.6,N
1540014456.0,286047002.6,N
1540014475.8,286047000.9,N
1540014495.7,286047001.0,N
1540014515.5,286047002.6,N
1540014535.3,286046999.7,N
1540014555.2,286046999.9,N
1540014575.0,286047000.7,N
1540014575.9,286047000.7,N
1540014595.8,286047000.3,N
1540014615.6,286047001.0,N
1540014635.4,286046999.7,N
1540014655.3,286047001.0,N
1540014675.1,286047000.5,N
1540014695.8,286047000.9,N
1540014715.7,286047000.5,N
1540014735.5,286046998.2,N
1540014755.4,286046998.5,N
1540014775.2,286046998.2,N
1540014795.0,286047000.8,N
1540014795.9,286047000.8,N
1540014815.8,286047000.9,N
1540014835.6,286047000.0,N
1540014855.4,286047000.9,N
1540014875.3,286046998.6,N
1540014895.1,286046997.7,N
1540014915.9,286046992.9,Y
1540014935.7,286046987.1,P
1540014955.5,286046984.3,N
1540014975.4,286046986.7,N
1540014995.2,286046982.4,N
1540015015.0,286046981.7,N
1540015015.9,286046981.7,N
1540015035.8,286046982.0,N
1540015055.6,286046981.0,Y
1540015075.5,286046993.5,P
1540015095.3,286046998.0,N
1540015115.1,286046994.5,N
1540015135.9,286046990.4,N
1540015155.7,286046991.1,N
1540015175.6,286046988.7,N
1540015195.4,286046989.1,N
